Preview of NWS' New Version of Forecast
This preview is not operational and should not be used for support decisions.
Latest weather observations around

Birmingham, Birmingham International Airport (KBHM)

Using English Units (Switch to International System of Units)
Date/ Time (CDT) Wind (mph) Vis. (mi) Weather Sky Cond. Temp (°F) Rel. Humidity Wind Chill (°F) Heat Index (°F) Pressure Precip. (in)
Air Dwpt 6 hour Altimeter (inHg) Sea level (inHg) 1 hr 3 hr 6 hr
Max Min
Apr 21 11:53 SE 13 10 Partly Cloudy SCT250 70 40     33%     30.28 30.27      
Apr 21 10:53 E 10 10 Partly Cloudy SCT250 67 41     39%     30.29 30.28      
Apr 21 09:53 ESE 11 10 Partly Cloudy SCT250 64 37     37%     30.3 30.29      
Apr 21 08:53 ESE 9 10 Partly Cloudy SCT250 59 38     45%     30.31 30.3      
Apr 21 07:53 3 10 Partly Cloudy SCT250 55 36     48%     30.31 30.3      
Apr 21 06:53 NE 7 10 Partly Cloudy SCT250 48 36     63% 45   30.3 30.29      
Apr 21 05:53 NNE 3 10 Mostly Clear FEW250 47 36     65% 46   30.28 30.27      
Apr 21 04:53 Calm 10 Clear CLR 52 34     50%     30.27 30.26      
Apr 21 03:53 ENE 5 10 Clear CLR 51 35     54%     30.27 30.26      
Apr 21 02:53 Calm 10 Clear CLR 47 38     71%     30.27 30.26      
Apr 21 01:53 ESE 3 10 Clear CLR 47 38     71% 46   30.29 30.28      
Apr 21 00:53 ENE 3 10 Clear CLR 53 34     48%     30.28 30.27      
Apr 20 23:53 Calm 10 Clear CLR 53 35     50%     30.28 30.27      
Apr 20 22:53 ENE 7 10 Clear CLR 58 33     39%     30.27 30.26      
Apr 20 21:53 ENE 5 10 Clear CLR 57 35     44%     30.27 30.26      
Apr 20 20:53 NE 3 10 Clear CLR 58 37     46%     30.28 30.27      
Apr 20 19:53 NE 5 10 Clear CLR 61 36     39%     30.27 30.27      
Apr 20 18:53 NE 8 10 Clear CLR 67 34     29%     30.27 30.26      
Apr 20 17:53 NNE 11 10 Clear CLR 70 32     24%     30.27 30.26      
Apr 20 16:53 5 10 Clear CLR 70 33     26%     30.27 30.26      
Apr 20 15:53 NNE 6 10 Clear CLR 69 32     25%     30.28 30.27      
Apr 20 14:53 E 10 10 Clear CLR 68 30     24%     30.3 30.29      
Apr 20 13:53 NE 13 10 Mostly Clear FEW250 68 32     26%     30.32 30.31      
Apr 20 12:53 NNE 9 10 Clear CLR 65 32     29%     30.34 30.33      
Apr 20 11:53 7 10 Clear CLR 63 31     30%     30.36 30.35      
Apr 20 10:53 NE 15 10 Clear CLR 60 29     31%     30.36 30.36      
Apr 20 09:53 ENE 11 10 Clear CLR 56 32     40%     30.35 30.35      
Apr 20 08:53 ENE 11 10 Clear CLR 51 31     46%     30.35 30.34      
Apr 20 07:53 NE 11 10 Clear CLR 48 31     51% 43   30.34 30.33      
Apr 20 06:53 N 5 10 Clear CLR 41 33     73% 38   30.34 30.33      
Apr 20 05:53 NNE 5 10 Clear CLR 41 31     67% 38   30.3 30.3      
Apr 20 04:53 NNE 6 10 Clear CLR 42 32     67% 38   30.29 30.29      
Apr 20 03:53 NNE 7 10 Clear CLR 42 33     70% 38   30.28 30.27      
Apr 20 02:53 N 6 10 Clear CLR 40 34     79% 36   30.27 30.27      
Apr 20 01:53 N 9 10 Clear CLR 44 34     67% 39   30.25 30.25      
Apr 20 00:53 N 9 10 Clear CLR 45 34     65% 40   30.26 30.25      
Apr 19 23:53 N 11 10 Clear CLR 46 33     60% 41   30.27 30.26      
Apr 19 22:53 N 8 10 Clear CLR 47 34     60% 43   30.28 30.27      
Apr 19 21:53 N 9 10 Clear CLR 47 35     63% 43   30.28 30.28      
Apr 19 19:53 N 6 10 Mostly Clear FEW250 50 35     56% 48   30.26 30.26      
Apr 19 18:53 N 13 10 Mostly Clear FEW250 55 34     45%     30.24 30.23      
Apr 19 17:53   10 Mostly Clear FEW250 59 34     39%     30.22 30.21      
Apr 19 16:53   10 Mostly Clear FEW250 60 36     40%     30.21 30.2      
Apr 19 15:53 N 14 10 Mostly Clear FEW055 61 37     41%     30.22 30.21      
Apr 19 14:53 NW 13 10 Mostly Clear FEW055 63 38     40%     30.21 30.19      
Apr 19 12:53   10 Clear CLR 63 38     40%     30.21 30.19      
Apr 19 11:53 NW 14 10 Clear CLR 62 38     41%     30.2 30.18      
Apr 19 10:53 NNW 13 10 Clear CLR 61 38     42%     30.18 30.17      
Apr 19 09:53 NNW 14 10 Clear CLR 59 37     44%     30.16 30.14      
Apr 19 08:53   10 Clear CLR 57 37     47%     30.14 30.12      
Apr 19 07:53 NNW 15 10 Clear CLR 57 40     53%     30.12 30.11      
Apr 19 06:53 N 11 10 Clear CLR 56 43     62%     30.1 30.08      
Apr 19 05:53 NNW 9 10 Clear CLR 58 41     53%     30.06 30.04      
Apr 19 04:53 NW 9 10 Mostly Clear FEW065 61 47     60%     30.03 30.01      
Apr 19 03:53   10 Mostly Clear FEW025 64 56     75%     30 29.98      
Apr 19 02:53 W 9 10 Clear CLR 66 60     81%     29.98 29.96      
Apr 19 01:53 W 11 10 Clear CLR 67 60     79%     29.98 29.96      
Apr 19 00:53 WSW 8 10 Clear CLR 68 59     73%     29.99 29.96      
Apr 18 23:53   10 Mostly Clear FEW050 69 59     70%     30 29.98      
Apr 18 22:53 W 8 10 Mostly Cloudy BKN050 70 59     68%     30 29.98      
Apr 18 21:53 W 9 10 Mostly Cloudy BKN055 72 58     61%   72 29.99 29.98      
Apr 18 20:53   10 Cloudy OVC055 75 56     52%   75 29.98 29.96      
Apr 18 19:53 WSW 14 10 Cloudy OVC060 76 55     48%   75 29.96 29.94      
Apr 18 18:53 SW 14 10 Mostly Clear FEW030 FEW250 77 55     47%   77 29.95 29.93      
Apr 18 17:53   10 Mostly Clear FEW250 79 53     41%   78 29.95 29.93      
Apr 18 16:53   10 Mostly Clear FEW250 81 53     38%   80 29.94 29.92      
Apr 18 15:53 SW 16 10 Partly Cloudy SCT250 81 52     37%   80 29.94 29.92      
Apr 18 14:53   10 Partly Cloudy SCT250 81 51     35%   80 29.96 29.93      
Apr 18 13:53 SW 15 10 Partly Cloudy SCT250 79 52     39%   78 29.98 29.96      
Apr 18 12:53   10 Partly Cloudy SCT250 76 52     43%   75 30 29.98      
Apr 18 11:53   10 Mostly Cloudy BKN250 73 53     50%   72 30.02 30.01      
Jun 12 03:53 SSE 5 10 Mostly Clear FEW040 74 71     91%   75 30.15 30.13      
Jun 11 23:53 SSE 5 10 Mostly Clear FEW050 79 70     74%   82 30.15 30.12      
Jun 11 07:53 SE 9 10 Partly Cloudy SCT065 SCT250 75 66     74%   76 30.17 30.14      
Jun 10 13:53 ESE 9 10 Mostly Cloudy SCT060 BKN075 86 58     39%   85 30.09 30.06      
Jun 10 11:53 3 10 Partly Cloudy SCT070 82        %     30.11 30.09      
Jun 08 22:53 Calm 10 Clear CLR 68 59     73%     29.95 29.93      
Jun 08 20:53 N 7 10 Mostly Clear FEW250 70 58     66%     29.91 29.89      
Jun 07 18:53   10 Mostly Clear FEW065 FEW250 79 54     42%   79 29.87 29.85      
Jun 06 03:11 NE 5 10 Mostly Cloudy FEW007 FEW022 BKN028 71 70     96%   72 29.81        
Jun 06 02:53 NNE 5 10 Partly Cloudy SCT120 71 70     96%   72 29.81 29.78      
Jun 05 19:53 Calm 10 Light Rain FEW020 SCT120 OVC250 72 70     93%   73 29.82 29.8 0    
Jun 05 14:53 Calm 10 Cloudy BKN065 BKN100 OVC250 75 70     84%   76 29.84 29.82 0